When you browse on this site, cookies collect data to enhance your experience and personalize the content and advertising you see.
Visit our Privacy Policy to learn more. By continuing to use the site, you agree to this use of cookies and data.

Stündliche Wetter Sherpur

Heute, 19 September, Samstag

Zeit Temperatur Niederschläge Wind Luftdruck Luftfeuchtigkeit
00:00 +18°C° 0 mm 1 m/S 610 mmHg 31%
01:00 +16°C° 0 mm 1 m/S 609 mmHg 31%
02:00 +15°C° 0 mm 1 m/S 609 mmHg 31%
03:00 +15°C° 0 mm 1 m/S 609 mmHg 31%
04:00 +14°C° 0 mm 1 m/S 608 mmHg 31%
05:00 +14°C° 0 mm 1 m/S 608 mmHg 30%
06:00 +15°C° 0 mm 1 m/S 609 mmHg 27%
07:00 +18°C° 0 mm 1 m/S 610 mmHg 23%
08:00 +19°C° 0 mm 1 m/S 610 mmHg 20%
09:00 +21°C° 0 mm 1 m/S 611 mmHg 18%
10:00 +23°C° 0 mm 1 m/S 611 mmHg 15%
11:00 +25°C° 0 mm 1 m/S 611 mmHg 13%
12:00 +26°C° 0 mm 1 m/S 611 mmHg 11%
13:00 +27°C° 0 mm 1 m/S 611 mmHg 9%
14:00 +28°C° 0 mm 2 m/S 611 mmHg 7%
15:00 +28°C° 0 mm 2 m/S 611 mmHg 7%
16:00 +29°C° 0 mm 2 m/S 611 mmHg 7%
17:00 +29°C° 0 mm 2 m/S 611 mmHg 6%
18:00 +27°C° 0 mm 2 m/S 610 mmHg 9%
19:00 +24°C° 0 mm 1 m/S 610 mmHg 11%
20:00 +22°C° 0 mm 1 m/S 610 mmHg 13%
21:00 +21°C° 0 mm 1 m/S 609 mmHg 14%
22:00 +20°C° 0 mm 1 m/S 609 mmHg 15%
23:00 +17°C° 0 mm 0 m/S 609 mmHg 15%

Morgen, 20 September, Sonntag

Zeit Temperatur Niederschläge Wind Luftdruck Luftfeuchtigkeit
00:00 +17°C° 0 mm 0 m/S 608 mmHg 15%
01:00 +16°C° 0 mm 0 m/S 608 mmHg 15%
02:00 +15°C° 0 mm 0 m/S 607 mmHg 15%
03:00 +15°C° 0 mm 0 m/S 607 mmHg 15%
04:00 +14°C° 0 mm 0 m/S 607 mmHg 14%
05:00 +13°C° 0 mm 0 m/S 607 mmHg 13%
06:00 +16°C° 0 mm 0 m/S 608 mmHg 12%
07:00 +18°C° 0 mm 0 m/S 609 mmHg 10%
08:00 +20°C° 0 mm 0 m/S 611 mmHg 8%
09:00 +24°C° 0 mm 1 m/S 611 mmHg 7%
10:00 +26°C° 0 mm 1 m/S 612 mmHg 6%
11:00 +27°C° 0 mm 1 m/S 612 mmHg 5%
12:00 +28°C° 0 mm 1 m/S 612 mmHg 5%
13:00 +29°C° 0 mm 1 m/S 612 mmHg 4%
14:00 +30°C° 0 mm 1 m/S 612 mmHg 4%
15:00 +30°C° 0 mm 1 m/S 612 mmHg 4%
16:00 +30°C° 0 mm 2 m/S 612 mmHg 4%
17:00 +30°C° 0 mm 2 m/S 611 mmHg 3%
18:00 +28°C° 0 mm 2 m/S 611 mmHg 5%
19:00 +25°C° 0 mm 2 m/S 610 mmHg 7%
20:00 +23°C° 0 mm 1 m/S 610 mmHg 8%
21:00 +22°C° 0 mm 1 m/S 610 mmHg 9%
22:00 +20°C° 0 mm 2 m/S 609 mmHg 9%
23:00 +19°C° 0 mm 2 m/S 609 mmHg 9%

übermorgen, 21 September, Montag

Zeit Temperatur Niederschläge Wind Luftdruck Luftfeuchtigkeit
00:00 +19°C° 0 mm 1 m/S 609 mmHg 9%
01:00 +18°C° 0 mm 1 m/S 608 mmHg 9%
02:00 +16°C° 0 mm 1 m/S 608 mmHg 9%
03:00 +16°C° 0 mm 1 m/S 608 mmHg 9%
04:00 +15°C° 0 mm 1 m/S 608 mmHg 9%
05:00 +14°C° 0 mm 1 m/S 608 mmHg 9%
06:00 +16°C° 0 mm 1 m/S 609 mmHg 8%
07:00 +19°C° 0 mm 1 m/S 610 mmHg 7%
08:00 +21°C° 0 mm 1 m/S 611 mmHg 7%
09:00 +23°C° 0 mm 1 m/S 611 mmHg 6%
10:00 +25°C° 0 mm 1 m/S 612 mmHg 5%
11:00 +26°C° 0 mm 1 m/S 612 mmHg 4%
12:00 +28°C° 0 mm 1 m/S 612 mmHg 4%
13:00 +29°C° 0 mm 1 m/S 612 mmHg 3%
14:00 +30°C° 0 mm 2 m/S 612 mmHg 3%
15:00 +30°C° 0 mm 3 m/S 612 mmHg 3%
16:00 +29°C° 0 mm 4 m/S 612 mmHg 4%
17:00 +29°C° 0 mm 5 m/S 611 mmHg 4%
18:00 +26°C° 0 mm 4 m/S 611 mmHg 6%
19:00 +24°C° 0 mm 3 m/S 611 mmHg 7%
20:00 +20°C° 0 mm 2 m/S 610 mmHg 9%
21:00 +19°C° 0 mm 2 m/S 610 mmHg 10%
22:00 +18°C° 0 mm 2 m/S 610 mmHg 11%
23:00 +17°C° 0 mm 2 m/S 610 mmHg 12%

22 September, Dienstag

Zeit Temperatur Niederschläge Wind Luftdruck Luftfeuchtigkeit
00:00 +16°C° 0 mm 2 m/S 609 mmHg 12%
01:00 +15°C° 0 mm 1 m/S 609 mmHg 13%
02:00 +15°C° 0 mm 1 m/S 608 mmHg 13%
03:00 +14°C° 0 mm 1 m/S 608 mmHg 14%
04:00 +14°C° 0 mm 1 m/S 608 mmHg 15%
05:00 +13°C° 0 mm 1 m/S 608 mmHg 15%
06:00 +15°C° 0 mm 1 m/S 609 mmHg 14%
07:00 +16°C° 0 mm 1 m/S 610 mmHg 13%
08:00 +19°C° 0 mm 1 m/S 611 mmHg 12%
09:00 +21°C° 0 mm 1 m/S 611 mmHg 11%
10:00 +22°C° 0 mm 1 m/S 611 mmHg 10%
11:00 +24°C° 0 mm 1 m/S 611 mmHg 9%
12:00 +25°C° 0 mm 1 m/S 611 mmHg 8%
13:00 +27°C° 0 mm 1 m/S 611 mmHg 8%
14:00 +28°C° 0 mm 1 m/S 611 mmHg 7%
15:00 +28°C° 0 mm 2 m/S 611 mmHg 7%
16:00 +28°C° 0 mm 2 m/S 611 mmHg 7%
17:00 +28°C° 0 mm 2 m/S 611 mmHg 8%
18:00 +26°C° 0 mm 2 m/S 610 mmHg 10%
19:00 +23°C° 0 mm 2 m/S 610 mmHg 12%
20:00 +20°C° 0 mm 2 m/S 609 mmHg 14%
21:00 +19°C° 0 mm 2 m/S 609 mmHg 16%
22:00 +19°C° 0 mm 1 m/S 609 mmHg 17%
23:00 +18°C° 0 mm 1 m/S 608 mmHg 18%

23 September, Mittwoch

Zeit Temperatur Niederschläge Wind Luftdruck Luftfeuchtigkeit
00:00 +18°C° 0 mm 1 m/S 608 mmHg 19%
01:00 +16°C° 0 mm 1 m/S 607 mmHg 20%
02:00 +15°C° 0 mm 1 m/S 607 mmHg 20%
03:00 +14°C° 0 mm 0 m/S 607 mmHg 21%
04:00 +13°C° 0 mm 0 m/S 606 mmHg 21%
05:00 +13°C° 0 mm 0 m/S 606 mmHg 22%
06:00 +14°C° 0 mm 0 m/S 607 mmHg 20%
07:00 +16°C° 0 mm 0 m/S 608 mmHg 17%
08:00 +18°C° 0 mm 0 m/S 609 mmHg 15%
09:00 +21°C° 0 mm 1 m/S 609 mmHg 14%
10:00 +23°C° 0 mm 1 m/S 610 mmHg 12%
11:00 +24°C° 0 mm 1 m/S 610 mmHg 11%
12:00 +25°C° 0 mm 1 m/S 610 mmHg 10%
13:00 +26°C° 0 mm 2 m/S 610 mmHg 9%
14:00 +27°C° 0 mm 2 m/S 610 mmHg 9%
15:00 +27°C° 0 mm 3 m/S 610 mmHg 9%
16:00 +27°C° 0 mm 4 m/S 609 mmHg 10%
17:00 +27°C° 0 mm 4 m/S 609 mmHg 11%
18:00 +23°C° 0 mm 4 m/S 609 mmHg 15%
19:00 +21°C° 0 mm 3 m/S 609 mmHg 18%
20:00 +19°C° 0 mm 3 m/S 608 mmHg 22%
21:00 +18°C° 0 mm 2 m/S 608 mmHg 24%
22:00 +17°C° 0 mm 2 m/S 608 mmHg 25%
23:00 +16°C° 0 mm 1 m/S 608 mmHg 27%

24 September, Donnerstag

Zeit Temperatur Niederschläge Wind Luftdruck Luftfeuchtigkeit
00:00 +15°C° 0 mm 1 m/S 608 mmHg 28%
01:00 +15°C° 0 mm 1 m/S 607 mmHg 29%
02:00 +14°C° 0 mm 1 m/S 607 mmHg 30%
03:00 +14°C° 0 mm 1 m/S 607 mmHg 31%
04:00 +12°C° 0 mm 0 m/S 607 mmHg 32%
05:00 +12°C° 0 mm 0 m/S 607 mmHg 32%
06:00 +13°C° 0 mm 0 m/S 608 mmHg 30%
07:00 +15°C° 0 mm 0 m/S 608 mmHg 27%
08:00 +16°C° 0 mm 0 m/S 609 mmHg 24%
09:00 +18°C° 0 mm 0 m/S 609 mmHg 21%
10:00 +21°C° 0 mm 1 m/S 610 mmHg 19%
11:00 +23°C° 0 mm 1 m/S 610 mmHg 17%
12:00 +24°C° 0 mm 1 m/S 610 mmHg 15%
13:00 +25°C° 0 mm 1 m/S 610 mmHg 14%
14:00 +27°C° 0 mm 2 m/S 610 mmHg 12%
15:00 +27°C° 0 mm 2 m/S 610 mmHg 13%
16:00 +27°C° 0 mm 2 m/S 610 mmHg 13%
17:00 +27°C° 0 mm 3 m/S 610 mmHg 13%
18:00 +25°C° 0 mm 2 m/S 610 mmHg 16%
19:00 +23°C° 0 mm 2 m/S 609 mmHg 20%
20:00 +21°C° 0 mm 1 m/S 609 mmHg 23%
21:00 +21°C° 0 mm 1 m/S 609 mmHg 23%
22:00 +20°C° 0 mm 1 m/S 609 mmHg 24%
23:00 +19°C° 0 mm 1 m/S 609 mmHg 25%
Mehr zeigen